period_start,C,m1,H,J0,J1,J2,J3,J4,J5,JA,JB,JC,JD,JJ,JK,JN,#
2014-03-25 00:00:22,0.03,2.71,0.00,21.94,27.50,30.38,6.00,32.08,1006.15,2038.02,2465.14,2616.68,2842.00,350.30,322.25,20.62,0000 0000 0000 0000 000000
2014-03-25 00:01:22,0.06,2.71,0.00,21.94,27.50,30.37,6.02,32.08,1006.02,2038.04,2465.06,2616.61,2842.00,350.08,321.92,20.62,0000 0000 0000 0000 000000
2014-03-25 00:02:22,0.06,2.71,0.00,21.94,27.50,30.35,6.08,32.13,1005.98,2038.05,2465.03,2616.44,2842.00,350.86,322.10,20.63,0000 0000 0000 0000 000000
2014-03-25 00:03:23,0.06,2.71,0.00,21.94,27.48,30.35,6.02,32.17,1005.94,2038.08,2465.01,2616.27,2842.00,349.89,322.03,20.64,0000 0000 0000 0000 000000
2014-03-25 00:04:23,0.06,2.71,0.00,21.93,27.47,30.36,6.01,32.29,1005.92,2038.06,2465.00,2616.15,2842.00,349.57,321.32,20.64,0000 0000 0000 0000 000000
2014-03-25 00:05:23,0.03,2.71,0.00,21.92,27.47,30.35,5.97,32.00,1005.89,2038.10,2465.00,2616.09,2841.99,350.15,321.86,20.65,0000 0000 0000 0000 000000
2014-03-25 00:06:24,0.05,2.71,0.00,21.92,27.47,30.38,6.10,31.96,1005.91,2038.12,2465.00,2616.04,2841.99,350.00,321.89,20.65,0000 0000 0000 0000 000000
2014-03-25 00:07:24,0.04,2.71,0.00,21.92,27.47,30.37,5.89,32.21,1005.89,2038.13,2464.99,2616.02,2841.98,349.02,320.75,20.66,0000 0000 0000 0000 000000
2014-03-25 00:08:24,0.00,2.71,0.00,21.92,27.47,30.36,6.21,32.29,1005.90,2038.10,2464.96,2616.01,2841.99,350.62,322.30,20.66,0000 0000 0000 0000 000000
2014-03-25 00:09:24,0.01,2.71,0.00,21.92,27.47,30.35,6.05,32.04,1005.90,2038.09,2464.69,2616.00,2841.95,350.14,321.85,20.67,0000 0000 0000 0000 000000
2014-03-25 00:10:25,0.05,2.71,0.00,21.92,27.47,30.36,6.10,32.00,1005.91,2038.16,2464.38,2616.00,2841.94,350.59,322.13,20.68,0000 0000 0000 0000 000000
2014-03-25 00:11:25,0.13,2.71,0.00,21.92,27.47,30.36,6.02,31.92,1005.93,2038.28,2464.17,2616.00,2841.95,349.84,321.46,20.68,0000 0000 0000 0000 000000
2014-03-25 00:12:25,0.13,2.72,0.00,21.92,27.47,30.37,6.04,31.92,1005.89,2038.35,2464.07,2616.00,2841.92,350.17,321.87,20.69,0000 0000 0000 0000 000000
2014-03-25 00:13:26,0.11,2.72,0.00,21.92,27.47,30.35,6.21,32.08,1005.88,2038.51,2464.02,2616.00,2841.90,350.77,322.43,20.69,0000 0000 0000 0000 000000
2014-03-25 00:14:26,0.15,2.72,0.00,21.92,27.46,30.34,5.98,32.04,1005.90,2038.56,2464.01,2616.00,2841.76,350.53,322.21,20.70,0000 0000 0000 0000 000000
2014-03-25 00:15:26,0.10,2.72,0.00,21.92,27.45,30.36,6.01,32.13,1005.89,2038.68,2464.00,2616.00,2841.64,349.69,321.44,20.71,0000 0000 0000 0000 000000
2014-03-25 00:16:26,0.08,2.72,0.00,21.92,27.45,30.35,5.80,31.96,1005.87,2038.76,2464.00,2615.99,2841.55,349.13,320.60,20.71,0000 0000 0000 0000 000000
2014-03-25 00:17:26,0.10,2.72,0.00,21.92,27.45,30.33,5.90,32.08,1005.87,2038.85,2464.00,2615.98,2841.41,349.67,320.98,20.72,0000 0000 0000 0000 000000
2014-03-25 00:18:27,0.11,2.72,0.00,21.92,27.45,30.34,6.09,31.92,1005.87,2038.87,2463.99,2615.97,2841.25,350.20,321.87,20.72,0000 0000 0000 0000 000000
2014-03-25 00:19:27,0.04,2.72,0.00,21.92,27.45,30.35,6.04,32.00,1005.87,2038.86,2463.99,2615.96,2841.14,349.65,321.46,20.73,0000 0000 0000 0000 000000
2014-03-25 00:20:27,0.01,2.72,0.00,21.92,27.45,30.34,5.96,32.33,1005.87,2038.88,2463.99,2615.98,2841.07,348.97,320.61,20.74,0000 0000 0000 0000 000000
2014-03-25 00:21:28,0.03,2.72,0.00,21.92,27.45,30.34,6.06,32.17,1005.87,2038.84,2463.99,2615.95,2841.04,349.80,321.79,20.74,0000 0000 0000 0000 000000
2014-03-25 00:22:28,-0.04,2.72,0.00,21.92,27.45,30.33,6.05,32.00,1005.87,2038.79,2463.98,2615.93,2841.02,351.02,322.65,20.75,0000 0000 0000 0000 000000
2014-03-25 00:23:28,-0.04,2.72,0.00,21.92,27.45,30.32,6.09,32.13,1005.87,2038.74,2463.96,2615.78,2841.01,350.64,322.31,20.75,0000 0000 0000 0000 000000
2014-03-25 00:24:28,-0.00,2.72,0.00,21.92,27.44,30.31,6.09,32.04,1005.87,2038.65,2463.87,2615.60,2841.00,350.17,321.88,20.76,0000 0000 0000 0000 000000
2014-03-25 00:25:29,0.06,2.72,0.00,21.91,27.44,30.32,6.13,32.17,1005.87,2038.68,2463.63,2615.42,2841.00,350.53,322.22,20.76,0000 0000 0000 0000 000000
2014-03-25 00:26:29,0.11,2.72,0.00,21.90,27.43,30.32,6.12,32.08,1005.87,2038.69,2463.40,2615.32,2841.00,350.79,322.46,20.77,0000 0000 0000 0000 000000
2014-03-25 00:27:29,0.09,2.72,0.00,21.90,27.43,30.31,6.02,32.04,1005.87,2038.69,2463.15,2615.15,2841.00,350.04,321.40,20.78,0000 0000 0000 0000 000000
2014-03-25 00:28:30,0.11,2.72,0.00,21.90,27.42,30.32,6.02,32.13,1005.87,2038.76,2463.07,2615.07,2840.99,350.58,322.29,20.78,0000 0000 0000 0000 000000
2014-03-25 00:29:30,0.10,2.72,0.00,21.90,27.42,30.31,5.83,32.08,1005.87,2038.83,2463.03,2615.04,2840.98,348.79,320.62,20.79,0000 0000 0000 0000 000000
2014-03-25 00:30:30,0.07,2.72,0.00,21.90,27.42,30.32,5.91,32.29,1005.87,2038.80,2463.01,2615.02,2840.95,350.11,322.11,20.79,0000 0000 0000 0000 000000
2014-03-25 00:31:31,-0.04,2.72,0.00,21.90,27.42,30.33,5.90,32.33,1005.86,2038.68,2462.99,2615.00,2840.84,349.66,321.42,20.80,0000 0000 0000 0000 000000
2014-03-25 00:32:31,-0.03,2.72,0.00,21.89,27.42,30.34,6.02,32.29,1005.87,2038.74,2462.98,2615.00,2840.69,349.98,321.85,20.81,0000 0000 0000 0000 000000
2014-03-25 00:33:31,0.06,2.72,0.00,21.89,27.42,30.32,6.11,32.13,1005.87,2038.84,2462.98,2615.00,2840.75,349.90,321.94,20.81,0000 0000 0000 0000 000000
2014-03-25 00:34:32,0.08,2.72,0.00,21.89,27.42,30.31,6.06,32.04,1005.87,2038.93,2462.99,2615.01,2840.76,350.32,321.84,20.82,0000 0000 0000 0000 000000
2014-03-25 00:35:32,0.08,2.72,0.00,21.89,27.42,30.30,5.92,31.96,1005.86,2038.97,2462.96,2615.00,2840.53,349.21,320.94,20.82,0000 0000 0000 0000 000000
2014-03-25 00:36:32,0.07,2.72,0.00,21.89,27.42,30.31,5.99,31.83,1005.85,2038.96,2462.87,2614.99,2840.45,350.53,322.26,20.83,0000 0000 0000 0000 000000
2014-03-25 00:37:32,0.04,2.72,0.00,21.89,27.42,30.30,5.94,32.17,1005.85,2038.96,2462.65,2614.98,2840.34,349.51,321.56,20.83,0000 0000 0000 0000 000000
2014-03-25 00:38:32,0.06,2.72,0.00,21.89,27.41,30.32,5.93,32.08,1005.85,2038.94,2462.34,2614.97,2840.16,350.24,321.79,20.84,0000 0000 0000 0000 000000
2014-03-25 00:39:33,0.06,2.72,0.00,21.89,27.40,30.32,6.04,32.21,1005.85,2038.93,2462.12,2614.98,2840.07,350.19,321.91,20.85,0000 0000 0000 0000 000000
2014-03-25 00:40:33,0.05,2.73,0.00,21.90,27.40,30.32,6.03,32.33,1005.83,2038.97,2462.04,2614.98,2840.03,349.43,321.20,20.85,0000 0000 0000 0000 000000
2014-03-25 00:41:33,0.04,2.73,0.00,21.89,27.40,30.32,5.98,32.13,1005.83,2038.99,2462.02,2614.97,2840.01,349.73,321.48,20.86,0000 0000 0000 0000 000000
2014-03-25 00:42:34,0.02,2.73,0.00,21.89,27.40,30.32,6.00,31.83,1005.80,2038.97,2462.00,2614.95,2840.00,350.34,322.15,20.86,0000 0000 0000 0000 000000
2014-03-25 00:43:34,0.01,2.73,0.00,21.89,27.40,30.34,5.99,32.00,1005.76,2038.97,2462.00,2614.93,2840.01,349.07,320.85,20.87,0000 0000 0000 0000 000000
2014-03-25 00:44:34,0.00,2.73,0.00,21.89,27.40,30.33,6.01,32.08,1005.73,2038.98,2462.00,2614.82,2840.00,350.30,321.97,20.88,0000 0000 0000 0000 000000
2014-03-25 00:45:35,0.03,2.73,0.00,21.89,27.40,30.32,6.12,32.13,1005.74,2038.97,2461.98,2614.65,2840.00,350.35,322.19,20.88,0000 0000 0000 0000 000000
2014-03-25 00:46:35,0.07,2.73,0.00,21.89,27.40,30.33,5.88,31.83,1005.63,2038.99,2461.96,2614.39,2840.00,349.69,321.36,20.89,0000 0000 0000 0000 000000
2014-03-25 00:47:35,0.08,2.73,0.00,21.90,27.40,30.30,6.05,31.88,1005.63,2038.97,2461.85,2614.22,2840.00,350.19,321.49,20.89,0000 0000 0000 0000 000000
2014-03-25 00:48:35,0.08,2.73,0.00,21.90,27.40,30.31,5.94,32.17,1005.59,2038.98,2461.48,2614.09,2839.98,348.90,320.72,20.90,0000 0000 0000 0000 000000
2014-03-25 00:49:36,0.09,2.73,0.00,21.90,27.40,30.31,6.09,32.13,1005.44,2038.99,2461.29,2614.05,2839.96,351.21,322.72,20.91,0000 0000 0000 0000 000000
2014-03-25 00:50:36,0.06,2.73,0.00,21.90,27.40,30.32,6.16,32.08,1005.40,2038.97,2461.15,2614.03,2839.96,350.14,321.88,20.91,0000 0000 0000 0000 000000
2014-03-25 00:51:36,0.02,2.73,0.00,21.90,27.40,30.30,6.02,32.25,1005.40,2038.98,2461.08,2614.01,2839.93,350.88,322.40,20.92,0000 0000 0000 0000 000000
2014-03-25 00:52:36,0.02,2.73,0.00,21.90,27.39,30.30,5.94,31.96,1005.41,2038.99,2461.03,2614.00,2839.86,350.42,321.73,20.92,0000 0000 0000 0000 000000
2014-03-25 00:53:37,0.03,2.73,0.00,21.89,27.38,30.30,5.86,31.83,1005.39,2038.98,2461.01,2614.00,2839.76,349.86,321.38,20.93,0000 0000 0000 0000 000000
2014-03-25 00:54:37,0.01,2.73,0.00,21.89,27.38,30.28,5.96,32.17,1005.40,2038.99,2461.00,2614.00,2839.68,349.32,320.96,20.93,0000 0000 0000 0000 000000
2014-03-25 00:55:37,0.02,2.73,0.00,21.90,27.38,30.27,6.03,32.04,1005.39,2038.99,2461.00,2614.00,2839.47,350.06,321.65,20.94,0000 0000 0000 0000 000000
2014-03-25 00:56:37,0.04,2.73,0.00,21.90,27.38,30.28,6.01,31.88,1005.40,2038.99,2461.00,2614.00,2839.29,349.58,321.38,20.95,0000 0000 0000 0000 000000
2014-03-25 00:57:38,0.03,2.73,0.00,21.91,27.37,30.28,6.02,32.13,1005.39,2038.99,2460.98,2613.99,2839.17,350.03,321.74,20.95,0000 0000 0000 0000 000000
2014-03-25 00:58:38,0.02,2.73,0.00,21.91,27.37,30.29,6.03,32.17,1005.39,2038.98,2460.99,2613.99,2839.08,350.02,321.59,20.96,0000 0000 0000 0000 000000
2014-03-25 00:59:38,0.01,2.73,0.00,21.91,27.37,30.26,6.00,32.04,1005.39,2038.99,2460.92,2613.97,2839.05,350.59,322.11,20.96,0000 0000 0000 0000 000000
2014-03-25 01:00:38,0.04,2.73,0.00,21.92,27.37,30.28,5.91,31.92,1005.39,2038.99,2460.77,2613.97,2839.02,349.20,320.83,20.97,0000 0000 0000 0000 000000
2014-03-25 01:01:39,0.02,2.73,0.00,21.91,27.37,30.30,6.07,32.29,1005.39,2038.99,2460.65,2613.97,2839.00,349.52,321.13,20.98,0000 0000 0000 0000 000000
2014-03-25 01:02:39,0.04,2.73,0.00,21.90,27.37,30.29,6.08,32.13,1005.39,2038.98,2460.36,2613.89,2839.00,350.70,322.23,20.98,0000 0000 0000 0000 000000
2014-03-25 01:03:39,0.08,2.73,0.00,21.89,27.37,30.30,6.02,32.25,1005.38,2038.99,2460.15,2613.70,2839.00,349.95,321.54,20.99,0000 0000 0000 0000 000000
2014-03-25 01:04:39,0.10,2.73,0.00,21.89,27.37,30.29,6.02,32.21,1005.39,2038.99,2460.06,2613.51,2839.00,350.11,321.42,20.99,0000 0000 0000 0000 000000
2014-03-25 01:05:39,0.07,2.73,0.00,21.89,27.37,30.27,6.07,32.08,1005.39,2038.99,2460.03,2613.42,2838.99,350.25,321.59,21.00,0000 0000 0000 0000 000000
2014-03-25 01:06:40,0.02,2.73,0.00,21.89,27.37,30.24,6.04,32.29,1005.39,2038.99,2460.02,2613.35,2838.99,350.81,322.34,21.00,0000 0000 0000 0000 000000
2014-03-25 01:07:40,0.03,2.73,0.00,21.90,27.37,30.28,6.02,32.13,1005.39,2038.98,2460.01,2613.21,2838.99,350.39,322.11,21.01,0000 0000 0000 0000 000000
2014-03-25 01:08:40,0.03,2.73,0.00,21.92,27.37,30.29,5.99,32.21,1005.38,2038.99,2460.00,2613.10,2838.99,349.77,321.63,21.02,0000 0000 0000 0000 000000
2014-03-25 01:09:40,0.03,2.73,0.00,21.92,27.37,30.27,6.05,31.96,1005.37,2038.99,2460.00,2613.04,2838.97,349.79,321.37,21.02,0000 0000 0000 0000 000000
2014-03-25 01:10:41,0.02,2.73,0.00,21.92,27.36,30.26,6.08,32.21,1005.35,2038.98,2459.99,2613.01,2838.89,349.32,320.93,21.03,0000 0000 0000 0000 000000
2014-03-25 01:11:41,0.02,2.73,0.00,21.92,27.36,30.28,5.91,32.13,1005.30,2038.99,2459.93,2613.00,2838.73,349.09,320.70,21.03,0000 0000 0000 0000 000000
2014-03-25 01:12:41,0.03,2.73,0.00,21.92,27.36,30.28,6.11,32.08,1005.27,2038.99,2459.93,2613.00,2838.65,350.36,321.99,21.04,0000 0000 0000 0000 000000
2014-03-25 01:13:42,0.01,2.73,0.00,21.92,27.35,30.28,6.08,32.13,1005.24,2038.99,2459.90,2613.00,2838.54,350.09,321.09,21.05,0000 0000 0000 0000 000000
2014-03-25 01:14:42,0.05,2.73,0.00,21.92,27.35,30.29,6.05,32.13,1005.27,2038.99,2459.63,2613.00,2838.26,350.43,321.91,21.05,0000 0000 0000 0000 000000
2014-03-25 01:15:42,0.10,2.73,0.00,21.91,27.35,30.29,5.94,32.04,1005.36,2038.99,2459.26,2612.98,2838.11,349.82,320.94,21.06,0000 0000 0000 0000 000000
2014-03-25 01:16:43,0.09,2.73,0.00,21.92,27.35,30.29,5.87,31.96,1005.31,2038.99,2459.10,2612.97,2838.04,350.01,321.69,21.06,0000 0000 0000 0000 000000
2014-03-25 01:17:43,0.04,2.74,0.00,21.92,27.35,30.29,6.05,32.04,1005.29,2038.99,2459.05,2612.97,2838.01,350.03,321.55,21.07,0000 0000 0000 0000 000000
2014-03-25 01:18:43,0.01,2.74,0.00,21.92,27.35,30.29,6.07,32.21,1005.26,2038.99,2459.01,2612.94,2838.00,350.81,322.27,21.08,0000 0000 0000 0000 000000
2014-03-25 01:19:44,0.01,2.74,0.00,21.92,27.35,30.27,6.09,32.04,1005.34,2038.99,2459.00,2612.94,2838.00,350.30,321.94,21.08,0000 0000 0000 0000 000000
2014-03-25 01:20:44,0.00,2.74,0.00,21.92,27.35,30.28,5.94,32.08,1005.28,2038.99,2459.00,2612.89,2838.00,349.97,321.50,21.09,0000 0000 0000 0000 000000
2014-03-25 01:21:44,0.03,2.74,0.00,21.92,27.35,30.26,6.07,32.17,1005.24,2038.99,2458.99,2612.73,2838.00,350.36,321.84,21.09,0000 0000 0000 0000 000000
2014-03-25 01:22:44,0.02,2.74,0.00,21.92,27.35,30.28,6.02,32.04,1005.24,2038.99,2458.95,2612.61,2838.00,350.01,321.72,21.10,0000 0000 0000 0000 000000
2014-03-25 01:23:45,0.06,2.74,0.00,21.93,27.35,30.27,6.02,32.13,1005.19,2038.99,2458.91,2612.45,2838.00,350.82,322.04,21.10,0000 0000 0000 0000 000000
2014-03-25 01:24:45,0.05,2.74,0.00,21.94,27.35,30.28,6.06,32.08,1005.21,2038.99,2458.75,2612.30,2837.99,350.29,321.81,21.11,0000 0000 0000 0000 000000
2014-03-25 01:25:45,0.07,2.74,0.00,21.94,27.35,30.27,5.95,31.96,1005.19,2038.99,2458.50,2612.17,2837.96,349.86,321.35,21.12,0000 0000 0000 0000 000000
2014-03-25 01:26:46,0.10,2.74,0.00,21.93,27.35,30.29,5.99,32.08,1005.20,2038.99,2458.20,2612.09,2837.90,350.06,321.55,21.12,0000 0000 0000 0000 000000
2014-03-25 01:27:46,0.09,2.74,0.00,21.92,27.35,30.25,5.99,32.17,1005.20,2038.99,2458.09,2612.04,2837.82,349.27,320.82,21.13,0000 0000 0000 0000 000000
2014-03-25 01:28:46,0.05,2.74,0.00,21.92,27.35,30.27,5.88,32.13,1005.28,2038.99,2458.04,2612.03,2837.62,349.91,321.38,21.13,0000 0000 0000 0000 000000
2014-03-25 01:29:46,0.04,2.74,0.00,21.93,27.35,30.29,5.94,32.17,1005.23,2038.99,2458.00,2612.01,2837.34,349.78,321.62,21.14,0000 0000 0000 0000 000000
2014-03-25 01:30:47,0.06,2.74,0.00,21.94,27.35,30.29,6.06,32.38,1005.26,2038.99,2457.99,2612.00,2837.18,349.56,321.09,21.15,0000 0000 0000 0000 000000
2014-03-25 01:31:47,0.03,2.74,0.00,21.94,27.35,30.30,6.11,32.38,1005.17,2038.99,2457.99,2612.00,2837.08,349.65,321.03,21.15,0000 0000 0000 0000 000000
2014-03-25 01:32:47,0.01,2.74,0.00,21.94,27.35,30.30,5.99,32.42,1005.10,2038.99,2457.98,2612.00,2837.03,350.38,321.30,21.16,0000 0000 0000 0000 000000
2014-03-25 01:33:47,0.00,2.74,0.00,21.95,27.35,30.27,5.99,32.13,1005.10,2038.99,2457.90,2612.00,2837.01,349.97,321.23,21.16,0000 0000 0000 0000 000000
2014-03-25 01:34:48,0.03,2.74,0.00,21.96,27.35,30.27,5.97,32.13,1005.03,2038.99,2457.59,2612.00,2837.00,349.36,320.80,21.17,0000 0000 0000 0000 000000
2014-03-25 01:35:48,0.04,2.74,0.00,21.97,27.35,30.27,6.02,32.00,1004.99,2038.99,2457.46,2611.99,2837.00,350.82,322.14,21.18,0000 0000 0000 0000 000000
2014-03-25 01:36:48,0.03,2.74,0.00,21.97,27.34,30.27,6.04,32.04,1004.95,2038.99,2457.26,2611.96,2837.00,350.79,322.09,21.18,0000 0000 0000 0000 000000
2014-03-25 01:37:49,0.04,2.74,0.00,21.97,27.35,30.28,6.09,32.38,1004.95,2038.99,2457.16,2611.94,2837.00,349.93,321.31,21.19,0000 0000 0000 0000 000000
2014-03-25 01:38:49,0.02,2.74,0.00,21.97,27.35,30.27,5.91,31.96,1004.95,2038.99,2457.08,2611.88,2837.00,349.79,321.17,21.19,0000 0000 0000 0000 000000
2014-03-25 01:39:49,0.03,2.74,0.00,21.97,27.35,30.26,5.92,32.04,1004.96,2038.99,2457.05,2611.84,2837.00,350.00,321.36,21.20,0000 0000 0000 0000 000000
2014-03-25 01:40:49,0.02,2.74,0.00,21.97,27.35,30.27,5.97,32.38,1004.94,2038.99,2457.01,2611.68,2837.00,349.65,321.02,21.20,0000 0000 0000 0000 000000
2014-03-25 01:41:50,0.06,2.74,0.00,21.97,27.35,30.29,6.13,32.13,1004.92,2038.99,2457.00,2611.39,2836.99,349.97,321.51,21.21,0000 0000 0000 0000 000000
2014-03-25 01:42:50,0.09,2.74,0.00,21.98,27.34,30.28,6.06,32.29,1004.91,2038.99,2456.99,2611.18,2836.93,349.74,321.11,21.22,0000 0000 0000 0000 000000
2014-03-25 01:43:50,0.07,2.74,0.00,21.99,27.35,30.30,5.92,32.00,1004.93,2038.99,2456.98,2611.08,2836.84,349.53,320.57,21.22,0000 0000 0000 0000 000000
2014-03-25 01:44:51,0.03,2.74,0.00,22.00,27.35,30.31,6.06,32.13,1004.91,2038.99,2456.97,2611.05,2836.77,349.83,321.17,21.23,0000 0000 0000 0000 000000
2014-03-25 01:45:51,0.02,2.74,0.00,22.00,27.35,30.28,6.01,32.13,1004.90,2038.99,2456.93,2611.02,2836.50,349.76,321.18,21.23,0000 0000 0000 0000 000000
2014-03-25 01:46:51,0.06,2.74,0.00,22.01,27.35,30.28,5.96,32.25,1004.92,2038.99,2456.91,2611.00,2836.26,350.01,321.48,21.24,0000 0000 0000 0000 000000
2014-03-25 01:47:51,0.05,2.74,0.00,22.02,27.35,30.29,5.99,31.96,1004.90,2038.99,2456.94,2611.00,2836.22,349.83,321.07,21.25,0000 0000 0000 0000 000000
2014-03-25 01:48:52,0.01,2.74,0.00,22.02,27.35,30.28,6.08,32.38,1004.91,2038.99,2456.84,2611.00,2836.17,350.10,321.17,21.25,0000 0000 0000 0000 000000
2014-03-25 01:49:52,0.03,2.74,0.00,22.02,27.35,30.29,6.13,32.04,1004.90,2038.99,2456.54,2611.00,2836.10,350.06,321.35,21.26,0000 0000 0000 0000 000000
2014-03-25 01:50:52,0.07,2.74,0.00,22.04,27.35,30.30,5.96,32.04,1004.90,2038.99,2456.24,2611.00,2836.04,349.55,321.04,21.26,0000 0000 0000 0000 000000
2014-03-25 01:51:52,0.05,2.74,0.00,22.04,27.35,30.32,6.08,32.00,1004.90,2039.00,2456.14,2611.00,2836.02,349.95,321.08,21.27,0000 0000 0000 0000 000000
2014-03-25 01:52:52,0.03,2.74,0.00,22.05,27.35,30.32,5.80,32.25,1004.90,2039.00,2456.05,2610.98,2836.00,348.74,319.97,21.27,0000 0000 0000 0000 000000
2014-03-25 01:53:52,0.02,2.74,0.00,22.05,27.35,30.31,5.96,32.17,1004.90,2039.01,2456.02,2610.97,2836.00,349.83,321.09,21.28,0000 0000 0000 0000 000000
2014-03-25 01:54:53,0.01,2.74,0.00,22.05,27.35,30.31,6.06,32.21,1004.90,2039.00,2456.02,2610.97,2836.00,350.74,322.08,21.29,0000 0000 0000 0000 000000
2014-03-25 01:55:53,0.00,2.74,0.00,22.05,27.35,30.33,6.09,32.17,1004.90,2039.00,2456.01,2610.95,2836.00,350.71,321.93,21.29,0000 0000 0000 0000 000000
2014-03-25 01:56:53,0.00,2.74,0.00,22.06,27.35,30.30,5.93,32.21,1004.90,2039.01,2456.00,2610.83,2836.00,349.41,320.71,21.30,0000 0000 0000 0000 000000
2014-03-25 01:57:53,0.04,2.74,0.00,22.07,27.35,30.32,6.08,32.17,1004.90,2039.00,2456.00,2610.76,2835.99,349.82,321.07,21.30,0000 0000 0000 0000 000000
2014-03-25 01:58:54,0.01,2.75,0.00,22.07,27.35,30.31,5.98,32.25,1004.90,2039.00,2456.00,2610.54,2835.95,349.42,320.78,21.31,0000 0000 0000 0000 000000
2014-03-25 01:59:54,0.09,2.75,0.00,22.09,27.35,30.32,6.10,32.17,1004.90,2039.00,2456.00,2610.25,2835.84,351.05,322.19,21.32,0000 0000 0000 0000 000000
2014-03-25 02:00:54,0.09,2.75,0.00,22.09,27.35,30.31,5.92,32.13,1004.90,2039.00,2456.00,2610.14,2835.69,349.60,320.52,21.32,0000 0000 0000 0000 000000
2014-03-25 02:01:54,0.06,2.75,0.00,22.09,27.35,30.30,6.07,32.25,1004.90,2039.00,2456.00,2610.06,2835.44,350.42,321.33,21.33,0000 0000 0000 0000 000000
2014-03-25 02:02:54,0.07,2.75,0.00,22.10,27.35,30.30,6.00,32.21,1004.90,2039.00,2455.98,2610.02,2835.21,350.20,321.05,21.33,0000 0000 0000 0000 000000
2014-03-25 02:03:55,0.04,2.75,0.00,22.10,27.35,30.30,5.89,32.08,1004.90,2039.00,2455.93,2610.01,2835.13,350.02,321.13,21.34,0000 0000 0000 0000 000000
2014-03-25 02:04:55,0.04,2.75,0.00,22.11,27.36,30.31,6.02,32.17,1004.90,2039.00,2455.82,2610.01,2835.06,350.77,321.92,21.35,0000 0000 0000 0000 000000
2014-03-25 02:05:55,0.02,2.75,0.00,22.12,27.36,30.31,5.82,32.08,1004.90,2039.00,2455.57,2610.00,2835.02,349.06,320.15,21.35,0000 0000 0000 0000 000000
2014-03-25 02:06:55,0.06,2.75,0.00,22.12,27.37,30.32,6.09,32.29,1004.90,2039.00,2455.25,2610.00,2835.02,350.58,321.72,21.36,0000 0000 0000 0000 000000
2014-03-25 02:07:55,0.06,2.75,0.00,22.12,27.37,30.31,6.00,32.21,1004.90,2039.00,2455.13,2610.00,2835.00,350.08,321.26,21.36,0000 0000 0000 0000 000000
2014-03-25 02:08:56,0.02,2.75,0.00,22.13,27.37,30.30,5.88,32.17,1004.90,2038.99,2455.12,2610.00,2835.00,349.35,320.83,21.37,0000 0000 0000 0000 000000
2014-03-25 02:09:56,0.00,2.75,0.00,22.14,27.37,30.31,6.14,32.21,1004.90,2038.98,2455.07,2610.00,2835.00,350.07,321.39,21.37,0000 0000 0000 0000 000000
2014-03-25 02:10:56,0.00,2.75,0.00,22.14,27.37,30.32,5.94,32.08,1004.90,2038.99,2455.06,2610.00,2835.00,349.39,320.82,21.38,0000 0000 0000 0000 000000
2014-03-25 02:11:56,0.00,2.75,0.00,22.14,27.37,30.33,5.93,32.17,1004.90,2038.98,2455.03,2610.00,2834.99,349.40,320.61,21.39,0000 0000 0000 0000 000000
2014-03-25 02:12:57,0.00,2.75,0.00,22.15,27.37,30.36,5.94,32.04,1004.89,2038.98,2455.01,2609.96,2834.96,349.71,321.11,21.39,0000 0000 0000 0000 000000
2014-03-25 02:13:57,0.01,2.75,0.00,22.16,27.37,30.39,6.03,32.00,1004.90,2038.97,2455.00,2609.85,2834.94,350.49,321.59,21.40,0000 0000 0000 0000 000000
2014-03-25 02:14:57,0.04,2.75,0.00,22.17,27.37,30.38,6.15,32.29,1004.88,2038.96,2455.00,2609.77,2834.91,350.65,321.62,21.40,0000 0000 0000 0000 000000
2014-03-25 02:15:57,0.03,2.75,0.00,22.17,27.37,30.39,6.02,32.21,1004.89,2038.98,2454.98,2609.62,2834.80,351.30,322.19,21.41,0000 0000 0000 0000 000000
2014-03-25 02:16:58,0.09,2.75,0.00,22.18,27.38,30.40,5.97,32.08,1004.89,2038.98,2454.95,2609.29,2834.46,349.51,320.79,21.42,0000 0000 0000 0000 000000
2014-03-25 02:17:58,0.15,2.75,0.00,22.18,27.39,30.40,6.02,32.08,1004.88,2038.99,2454.95,2609.12,2834.29,349.18,320.36,21.42,0000 0000 0000 0000 000000
2014-03-25 02:18:58,0.09,2.75,0.00,22.19,27.39,30.40,6.04,32.21,1004.86,2038.98,2454.84,2609.07,2834.16,350.27,321.34,21.43,0000 0000 0000 0000 000000
2014-03-25 02:19:59,0.05,2.75,0.00,22.19,27.39,30.36,5.95,32.08,1004.81,2038.99,2454.66,2609.04,2834.10,350.00,321.08,21.43,0000 0000 0000 0000 000000
2014-03-25 02:20:59,0.07,2.75,0.00,22.20,27.40,30.37,6.00,31.96,1004.76,2038.98,2454.41,2609.01,2834.05,350.67,321.67,21.44,0000 0000 0000 0000 000000
2014-03-25 02:21:59,0.06,2.75,0.00,22.20,27.40,30.37,5.88,32.13,1004.78,2038.98,2454.17,2609.00,2834.03,349.86,320.48,21.44,0000 0000 0000 0000 000000
2014-03-25 02:23:00,0.03,2.75,0.00,22.21,27.40,30.37,5.86,32.04,1004.74,2038.97,2454.06,2609.00,2834.00,348.82,320.02,21.45,0000 0000 0000 0000 000000
2014-03-25 02:24:00,0.04,2.75,0.00,22.22,27.40,30.38,5.99,32.17,1004.75,2038.97,2454.01,2608.99,2834.00,350.05,321.07,21.46,0000 0000 0000 0000 000000
2014-03-25 02:25:00,0.00,2.75,0.00,22.22,27.40,30.39,5.88,32.08,1004.74,2038.98,2453.99,2608.98,2834.00,349.78,320.60,21.46,0000 0000 0000 0000 000000
2014-03-25 02:26:00,0.00,2.75,0.00,22.23,27.40,30.37,6.02,32.21,1004.72,2038.99,2453.90,2608.97,2834.00,349.79,320.84,21.47,0000 0000 0000 0000 000000
2014-03-25 02:27:00,0.04,2.75,0.00,22.24,27.40,30.38,6.03,32.04,1004.69,2038.97,2453.88,2608.95,2833.99,350.62,321.55,21.47,0000 0000 0000 0000 000000
2014-03-25 02:28:00,-0.02,2.75,0.00,22.24,27.40,30.38,6.03,32.08,1004.66,2038.95,2453.65,2608.92,2833.91,349.89,320.88,21.48,0000 0000 0000 0000 000000
2014-03-25 02:29:00,0.08,2.75,0.00,22.25,27.40,30.38,5.98,32.13,1004.72,2038.95,2453.30,2608.74,2833.73,350.34,321.30,21.49,0000 0000 0000 0000 000000
2014-03-25 02:30:01,0.16,2.75,0.00,22.25,27.41,30.38,6.13,32.46,1004.79,2038.95,2453.13,2608.50,2833.53,350.38,321.37,21.49,0000 0000 0000 0000 000000
2014-03-25 02:31:01,0.17,2.76,0.00,22.27,27.41,30.39,5.88,32.25,1004.73,2038.92,2453.04,2608.26,2833.30,349.84,321.01,21.50,0000 0000 0000 0000 000000
2014-03-25 02:32:01,0.06,2.76,0.00,22.27,27.42,30.40,6.01,32.17,1004.78,2038.90,2453.01,2608.11,2833.12,350.27,321.23,21.50,0000 0000 0000 0000 000000
2014-03-25 02:33:01,0.05,2.76,0.00,22.28,27.42,30.40,6.12,32.17,1004.81,2038.90,2453.00,2608.05,2833.05,350.46,321.14,21.51,0000 0000 0000 0000 000000
2014-03-25 02:34:02,0.04,2.76,0.00,22.28,27.42,30.37,6.00,32.21,1004.76,2038.91,2453.00,2608.05,2833.03,350.00,321.18,21.52,0000 0000 0000 0000 000000
2014-03-25 02:35:02,0.00,2.76,0.00,22.29,27.42,30.38,5.90,32.00,1004.78,2038.91,2453.00,2608.02,2833.01,349.99,320.60,21.52,0000 0000 0000 0000 000000
2014-03-25 02:36:02,0.01,2.76,0.00,22.29,27.42,30.39,6.02,32.17,1004.78,2038.87,2452.99,2608.00,2833.00,350.61,321.52,21.53,0000 0000 0000 0000 000000